STARLINK-5883 (55956 NORAD) Tracking and Keplerian Element Data

This shows tracking and keplerian element data for the satellite.

Feedback or suggestion? Click here.




ElementValue
Catalog55956
NameSTARLINK-5883
Epoch Orbit839
Epoch Day126.86563942
Epoch Year2023
RAAN40.198
Inclination69.9983
Eccentricity0.0003112
Argument of Perigee264.1712
Mean Anonmoly95.9129
Mean Motion15.69928179
Decay Rate-7.01E-06
L11 55956U 23037AU 23126.86563942 -.00000701 00000+0 -40578-5 0 9990
L22 55956 69.9983 40.1980 0003112 264.1712 95.9129 15.69928179 8390



Live tracking and technical data element details for STARLINK-5883 (NORAD 55956). STARLINK-5883 can be tracked NOW for your location showing map with azimuth and elevation plus other details from your city location.







IsCatalogInMostPopularTable: catalog: 55956, numindb: 9
Update: records affected: 1



GetName: 55956 STARLINK-5883

Hit Count: updated at: Tue, 06 Jun 2023 02:16:51 GMT